Weather History for YBCG - February, 2014

Change the Weather History Date:

Saturday, February 8, 2014

  Actual Average (YBBN) Record (YBBN)
Temperature  
Mean Temperature 74 °F -  
Max Temperature 82 °F 81 °F 86 °F (1998)
Min Temperature 65 °F 68 °F 64 °F (2008)
Cooling Degree Days 8    
Growing Degree Days 24 (Base 50)    
Moisture  
Dew Point 63 °F    
Average Humidity 70    
Maximum Humidity 94    
Minimum Humidity 45    
Precipitation  
Precipitation 0.00 in - - ()
Sea Level Pressure  
Sea Level Pressure 30.06 in    
Wind  
Wind Speed 6 mph ()    
Max Wind Speed 15 mph    
Max Gust Speed -    
Visibility 6.2 miles    
Events      
Averages and records for this station are not official NWS values.
T = Trace of Precipitation, MM = Missing Value Source: Averaged Metar Reports

Daily Weather History Graph

Daily Weather History Graph

Search for Another Location

Airport or City:

Trip Planner

Search our weather history database for the weather conditions in past years. The results will help you decide how hot, cold, wet, or windy it might be!

Date:

Astronomy

Feb. 08, 2014 Rise Set
Actual Time 5:22 AM AEST 6:37 PM AEST
Civil Twilight 4:58 AM AEST 7:01 PM AEST
Nautical Twilight 4:28 AM AEST 7:31 PM AEST
Astronomical Twilight 3:57 AM AEST 8:01 PM AEST
Moon 1:26 PM AEST (2/8) No Moon Set
Length of Visible Light 14h 03m
Length of Day
13h 14m
Waxing Gibbous, 62% of the Moon is Illuminated
Feb 8
Waxing Gibbous
Feb 15
Full
Feb 23
Last Quarter
Mar 1
New
Mar 8
First Quarter

Hourly Weather History & Observations

Time (AEST) Temp. Heat Index Dew Point Humidity Pressure Visibility Wind Dir Wind Speed Gust Speed Precip Events Conditions
12:00 AM 68 °F - 63 °F 80% 30.04 in - SW 3.5 mph - -  
12:00 AM 68.0 °F - 62.6 °F 83% 30.04 in 6.2 mi SW 3.5 mph - N/A   Mostly Cloudy
12:30 AM 68.0 °F - 64.4 °F 88% 30.04 in 6.2 mi SW 1.2 mph - N/A   Scattered Clouds
1:00 AM 66.2 °F - 62.6 °F 88% 30.04 in 6.2 mi SSW 2.3 mph - N/A   Mostly Cloudy
1:30 AM 66.2 °F - 62.6 °F 88% 30.01 in 6.2 mi SSW 2.3 mph - N/A   Mostly Cloudy
2:00 AM 66.2 °F - 62.6 °F 88% 30.01 in 6.2 mi SSW 3.5 mph - N/A   Scattered Clouds
2:30 AM 66.2 °F - 62.6 °F 88% 30.01 in 6.2 mi Calm Calm - N/A   Overcast
3:00 AM 68 °F - 64 °F 83% 30.02 in - Calm Calm - -  
3:00 AM 68.0 °F - 64.4 °F 88% 30.01 in 6.2 mi Calm Calm - N/A   Overcast
3:30 AM 68.0 °F - 64.4 °F 88% 30.01 in 6.2 mi Calm Calm - N/A   Overcast
4:00 AM 68.0 °F - 64.4 °F 88% 30.01 in 6.2 mi Calm Calm - N/A   Overcast
4:30 AM 68.0 °F - 64.4 °F 88% 30.04 in 6.2 mi Calm Calm - N/A   Overcast
5:00 AM 68.0 °F - 64.4 °F 88% 30.04 in 6.2 mi South 3.5 mph - N/A   Overcast
5:30 AM 68.0 °F - 64.4 °F 88% 30.04 in 6.2 mi South 4.6 mph - N/A   Overcast
6:00 AM 69 °F - 65 °F 85% 30.06 in - South 3.5 mph - -  
6:00 AM 68.0 °F - 66.2 °F 94% 30.06 in 6.2 mi South 3.5 mph - N/A   Mostly Cloudy
6:30 AM 71.6 °F - 64.4 °F 78% 30.06 in 6.2 mi SSE 3.5 mph - N/A   Scattered Clouds
7:00 AM 71.6 °F - 64.4 °F 78% 30.06 in 6.2 mi SSE 4.6 mph - N/A   Scattered Clouds
7:30 AM 75.2 °F - 64.4 °F 69% 30.06 in 6.2 mi South 8.1 mph - N/A   Mostly Cloudy
8:00 AM 75.2 °F - 66.2 °F 73% 30.06 in 6.2 mi South 5.8 mph - N/A   Mostly Cloudy
8:30 AM 78.8 °F - 64.4 °F 61% 30.06 in 6.2 mi SE 9.2 mph - N/A   Mostly Cloudy
9:00 AM 78 °F - 64 °F 53% 30.09 in - SE 10.4 mph - -  
9:00 AM 78.8 °F - 64.4 °F 61% 30.06 in 6.2 mi SE 10.4 mph - N/A   Mostly Cloudy
9:30 AM 77.0 °F - 62.6 °F 61% 30.06 in 6.2 mi East 12.7 mph - N/A   Mostly Cloudy
10:00 AM 80.6 °F 82.3 °F 64.4 °F 58% 30.06 in 6.2 mi East 10.4 mph - N/A   Overcast
10:30 AM 78.8 °F - 62.6 °F 57% 30.06 in 6.2 mi ENE 12.7 mph - N/A   Mostly Cloudy
11:00 AM 80.6 °F 81.8 °F 62.6 °F 54% 30.06 in 6.2 mi ENE 12.7 mph - N/A   Unknown
11:30 AM 80.6 °F 81.8 °F 62.6 °F 54% 30.06 in 6.2 mi ENE 11.5 mph - N/A   Unknown
12:00 PM 81 °F - 64 °F 46% 30.08 in - ENE 12.7 mph - -  
12:00 PM 80.6 °F 82.3 °F 64.4 °F 58% 30.06 in 6.2 mi ENE 12.7 mph - N/A   Unknown
12:30 PM 80.6 °F 81.8 °F 62.6 °F 54% 30.06 in 6.2 mi ENE 12.7 mph - N/A   Unknown
1:00 PM 80.6 °F 81.8 °F 62.6 °F 54% 30.06 in 6.2 mi East 12.7 mph - N/A   Unknown
1:30 PM 80.6 °F 82.3 °F 64.4 °F 58% 30.06 in 6.2 mi ENE 12.7 mph - N/A   Unknown
2:00 PM 80.6 °F 82.3 °F 64.4 °F 58% 30.04 in 6.2 mi ENE 13.8 mph - N/A   Unknown
2:30 PM 82.4 °F 83.9 °F 64.4 °F 54% 30.04 in 6.2 mi ENE 15.0 mph - N/A   Unknown
3:00 PM 81 °F - 63 °F 45% 30.05 in - ENE 15.0 mph - -  
3:00 PM 80.6 °F 81.8 °F 62.6 °F 54% 30.04 in 6.2 mi ENE 15.0 mph - N/A   Unknown
3:30 PM 80.6 °F 82.3 °F 64.4 °F 58% 30.04 in 6.2 mi East 12.7 mph - N/A   Unknown
4:00 PM 80.6 °F 81.5 °F 60.8 °F 51% 30.04 in 6.2 mi East 12.7 mph - N/A   Unknown
4:30 PM 78.8 °F - 62.6 °F 57% 30.04 in 6.2 mi East 12.7 mph - N/A   Unknown
5:00 PM 78.8 °F - 62.6 °F 57% 30.04 in 6.2 mi East 12.7 mph - N/A   Unknown
5:30 PM 78.8 °F - 62.6 °F 57% 30.06 in 6.2 mi East 10.4 mph - N/A   Unknown
6:00 PM 76 °F - 63 °F 54% 30.07 in - East 9.2 mph - -  
6:00 PM 77.0 °F - 62.6 °F 61% 30.06 in 6.2 mi East 9.2 mph - N/A   Unknown
6:30 PM 75.2 °F - 62.6 °F 65% 30.06 in 6.2 mi ESE 9.2 mph - N/A   Unknown
7:00 PM 75.2 °F - 62.6 °F 65% 30.09 in 6.2 mi ESE 8.1 mph - N/A   Unknown
7:30 PM 73.4 °F - 62.6 °F 69% 30.09 in 6.2 mi ESE 8.1 mph - N/A   Unknown
8:00 PM 71.6 °F - 60.8 °F 69% 30.09 in 6.2 mi ESE 5.8 mph - N/A   Scattered Clouds
8:30 PM 71.6 °F - 60.8 °F 69% 30.12 in 6.2 mi SE 4.6 mph - N/A   Unknown
9:00 PM 70 °F - 64 °F 75% 30.13 in - WSW 6.9 mph - -  
9:00 PM 69.8 °F - 64.4 °F 83% 30.12 in 6.2 mi WSW 6.9 mph - N/A   Unknown
9:30 PM 69.8 °F - 64.4 °F 83% 30.12 in 6.2 mi WSW 6.9 mph - N/A   Unknown
10:00 PM 68.0 °F - 64.4 °F 88% 30.12 in 6.2 mi SW 5.8 mph - N/A   Unknown
10:30 PM 68.0 °F - 62.6 °F 83% 30.09 in 6.2 mi SW 5.8 mph - N/A   Unknown
11:00 PM 68.0 °F - 62.6 °F 83% 30.09 in 6.2 mi WSW 5.8 mph - N/A   Unknown
11:30 PM 66.2 °F - 62.6 °F 88% 30.09 in 6.2 mi SW 4.6 mph - N/A   Unknown